Location: Unspecified
(0.0000°N, 0.0000°E)
Time: 15:35:15
(UTC+00:00)

Altair - Pass Details

Date: 11 February 2023
Orbit: 1501 x 1682 km, 47.2° (Epoch: 19 March)

Event Time Altitude Azimuth Distance (km) Brightness Sun altitude
Exits shadow 02:38:06 29° 151° (SSE) 2,676 8.9 -51.7°
Drops below altitude 10° 02:42:11 10° 146° (SE) 3,871 10.0 -50.8°
Sets 02:45:17 0° 144° (SE) 4,837 10.6 -50.0°
